This is the latest recevied weather packets stored in our database for station/object IZ8XTV-13. If no packets are shown the sender has not sent any weather packets the latest 1 day(s).
| Time | Temp. | Humidity | Pressure | Rain* | Wind** | Luminosity | Snow |
|---|---|---|---|---|---|---|---|
| 1777999043 | 18.89° C | 86% | 1016.5 hPa | 0 mm | 0 m/s | - | - |
| 1777998431 | 18.89° C | 84% | 1016.3 hPa | 0 mm | 0 m/s | - | - |
| 1777997817 | 18.89° C | 85% | 1016.4 hPa | 0 mm | 0 m/s | - | - |
| 1777997529 | 18.89° C | 85% | 1016.5 hPa | 0 mm | 0 m/s | - | - |
| 1777996918 | 19.44° C | 84% | 1016.6 hPa | 0 mm | 0 m/s | - | - |
| 1777996306 | 19.44° C | 84% | 1016.7 hPa | 0 mm | 0 m/s | - | - |
| 1777995694 | 19.44° C | 83% | 1016.7 hPa | 0 mm | 0 m/s | - | - |
| 1777995083 | 19.44° C | 83% | 1016.8 hPa | 0 mm | 0 m/s | - | - |
| 1777994470 | 19.44° C | 82% | 1016.9 hPa | 0 mm | 0 m/s | - | - |
| 1777993858 | 20° C | 82% | 1016.9 hPa | 0 mm | 0 m/s | - | - |
| 1777993246 | 20° C | 81% | 1016.9 hPa | 0 mm | 0 m/s | - | - |
| 1777992634 | 20° C | 80% | 1016.9 hPa | 0 mm | 0 m/s | - | - |
| 1777992022 | 20.56° C | 80% | 1016.9 hPa | 0 mm | 0 m/s | - | - |
| 1777991410 | 20.56° C | 79% | 1017 hPa | 0 mm | 0 m/s | - | - |
| 1777990799 | 20.56° C | 79% | 1017 hPa | 0 mm | 0 m/s | - | - |
| 1777990187 | 21.67° C | 78% | 1017 hPa | 0 mm | 0 m/s | - | - |
| 1777989576 | 21.67° C | 78% | 1017.1 hPa | 0 mm | 0 m/s | - | - |
| 1777988964 | 21.11° C | 78% | 1017.1 hPa | 0 mm | 0 m/s | - | - |
| 1777988352 | 21.11° C | 79% | 1017.1 hPa | 0 mm | 0 m/s | - | - |
| 1777987740 | 21.67° C | 78% | 1017.3 hPa | 0 mm | 0 m/s | - | - |
| 1777987128 | 21.67° C | 78% | 1017.1 hPa | 0 mm | 0 m/s | - | - |
| 1777986516 | 21.67° C | 79% | 1017.3 hPa | 0 mm | 0 m/s | - | - |
| 1777985904 | 21.67° C | 80% | 1017.4 hPa | 0 mm | 0 m/s | - | - |
| 1777985291 | 21.67° C | 79% | 1017.5 hPa | 0 mm | 0 m/s | - | - |
| 1777984679 | 21.11° C | 81% | 1017.6 hPa | 0 mm | 0 m/s | - | - |
* Rain latest hour (hover to see other rain measurements)
** Current wind speed in m/s (hover to see current wind gust speed)